When you browse on this site, cookies collect data to enhance your experience and personalize the content and advertising you see.
Visit our Privacy Policy to learn more. By continuing to use the site, you agree to this use of cookies and data.
  • In Netherlands
  • List of Countries
  • For 7 days
  • Water Temperature
  • Weather Map
  • Weather Widgets
  • user-avatar
    Login

    Hourly Weather Koudougou

    Today, 28 May, Thursday

    Time Temperature Precipitation Wind Pressure Humidity
    00:00 +34°C° 0 mm 1 mps 733 mmHg 36%
    01:00 +34°C° 0 mm 1 mps 732 mmHg 37%
    02:00 +34°C° 0 mm 2 mps 732 mmHg 39%
    03:00 +34°C° 0 mm 2 mps 732 mmHg 40%
    04:00 +32°C° 0 mm 2 mps 732 mmHg 43%
    05:00 +32°C° 0 mm 2 mps 732 mmHg 45%
    06:00 +32°C° 0 mm 2 mps 732 mmHg 47%
    07:00 +32°C° 0 mm 2 mps 733 mmHg 46%
    08:00 +34°C° 0 mm 2 mps 733 mmHg 45%
    09:00 +35°C° 0 mm 2 mps 734 mmHg 43%
    10:00 +36°C° 0 mm 2 mps 733 mmHg 40%
    11:00 +37°C° 0 mm 2 mps 733 mmHg 36%
    12:00 +38°C° 0 mm 2 mps 733 mmHg 32%
    13:00 +39°C° 0 mm 3 mps 732 mmHg 30%
    14:00 +41°C° 0 mm 4 mps 731 mmHg 28%
    15:00 +41°C° 0 mm 5 mps 730 mmHg 26%
    16:00 +41°C° 0 mm 4 mps 730 mmHg 27%
    17:00 +40°C° 0 mm 4 mps 730 mmHg 27%
    18:00 +40°C° 0 mm 4 mps 730 mmHg 27%
    19:00 +38°C° 0 mm 4 mps 731 mmHg 29%
    20:00 +37°C° 0 mm 4 mps 731 mmHg 32%
    21:00 +37°C° 0 mm 4 mps 732 mmHg 34%
    22:00 +36°C° 0.1 mm 4 mps 732 mmHg 35%
    23:00 +36°C° 0.1 mm 3 mps 732 mmHg 36%

    Tomorrow, 29 May, Friday

    Time Temperature Precipitation Wind Pressure Humidity
    00:00 +35°C° 0.1 mm 3 mps 732 mmHg 37%
    01:00 +35°C° 0.1 mm 3 mps 732 mmHg 40%
    02:00 +34°C° 0.1 mm 2 mps 731 mmHg 42%
    03:00 +34°C° 0.1 mm 2 mps 731 mmHg 44%
    04:00 +32°C° 0 mm 2 mps 731 mmHg 46%
    05:00 +32°C° 0 mm 2 mps 731 mmHg 49%
    06:00 +31°C° 0 mm 2 mps 732 mmHg 51%
    07:00 +32°C° 0 mm 2 mps 732 mmHg 50%
    08:00 +34°C° 0 mm 3 mps 732 mmHg 49%
    09:00 +35°C° 0 mm 4 mps 733 mmHg 48%
    10:00 +36°C° 0 mm 3 mps 732 mmHg 43%
    11:00 +37°C° 0 mm 3 mps 732 mmHg 39%
    12:00 +38°C° 0 mm 2 mps 732 mmHg 35%
    13:00 +39°C° 0 mm 2 mps 731 mmHg 33%
    14:00 +40°C° 0 mm 1 mps 731 mmHg 31%
    15:00 +40°C° 0 mm 1 mps 730 mmHg 29%
    16:00 +40°C° 0 mm 2 mps 730 mmHg 29%
    17:00 +40°C° 0 mm 2 mps 730 mmHg 30%
    18:00 +40°C° 0 mm 2 mps 729 mmHg 30%
    19:00 +39°C° 0.3 mm 2 mps 730 mmHg 33%
    20:00 +38°C° 0.3 mm 2 mps 730 mmHg 37%
    21:00 +37°C° 0.3 mm 2 mps 731 mmHg 40%
    22:00 +36°C° 0.3 mm 3 mps 731 mmHg 43%
    23:00 +35°C° 0.3 mm 4 mps 731 mmHg 47%

    Day after tomorrow, 30 May, Saturday

    Time Temperature Precipitation Wind Pressure Humidity
    00:00 +34°C° 0.3 mm 5 mps 731 mmHg 51%
    01:00 +34°C° 0 mm 5 mps 731 mmHg 53%
    02:00 +33°C° 0 mm 5 mps 730 mmHg 55%
    03:00 +33°C° 0 mm 5 mps 730 mmHg 57%
    04:00 +32°C° 0 mm 5 mps 730 mmHg 59%
    05:00 +32°C° 0 mm 5 mps 731 mmHg 61%
    06:00 +30°C° 0 mm 5 mps 731 mmHg 63%
    07:00 +32°C° 0 mm 5 mps 731 mmHg 59%
    08:00 +33°C° 0 mm 5 mps 732 mmHg 56%
    09:00 +35°C° 0 mm 6 mps 732 mmHg 52%
    10:00 +36°C° 0 mm 5 mps 732 mmHg 47%
    11:00 +37°C° 0 mm 5 mps 732 mmHg 43%
    12:00 +40°C° 0 mm 5 mps 732 mmHg 38%
    13:00 +40°C° 0 mm 4 mps 731 mmHg 35%
    14:00 +40°C° 0 mm 3 mps 730 mmHg 32%
    15:00 +42°C° 0 mm 3 mps 730 mmHg 29%
    16:00 +42°C° 0 mm 3 mps 729 mmHg 29%
    17:00 +40°C° 0 mm 3 mps 729 mmHg 29%
    18:00 +40°C° 0 mm 2 mps 729 mmHg 30%
    19:00 +39°C° 0.1 mm 3 mps 730 mmHg 32%
    20:00 +38°C° 0.1 mm 3 mps 730 mmHg 34%
    21:00 +37°C° 0.1 mm 3 mps 731 mmHg 37%
    22:00 +36°C° 0.1 mm 4 mps 731 mmHg 40%
    23:00 +35°C° 0.1 mm 5 mps 732 mmHg 43%

    31 May, Sunday

    Time Temperature Precipitation Wind Pressure Humidity
    00:00 +34°C° 0.1 mm 6 mps 732 mmHg 46%
    01:00 +34°C° 0.3 mm 5 mps 732 mmHg 48%
    02:00 +33°C° 0.3 mm 4 mps 731 mmHg 50%
    03:00 +32°C° 0.3 mm 2 mps 731 mmHg 52%
    04:00 +31°C° 0.1 mm 3 mps 732 mmHg 54%
    05:00 +32°C° 0.1 mm 4 mps 732 mmHg 55%
    06:00 +32°C° 0.1 mm 4 mps 732 mmHg 57%
    07:00 +33°C° 0 mm 4 mps 732 mmHg 55%
    08:00 +34°C° 0 mm 5 mps 733 mmHg 53%
    09:00 +34°C° 0 mm 5 mps 733 mmHg 51%
    10:00 +36°C° 0 mm 5 mps 733 mmHg 46%
    11:00 +38°C° 0 mm 4 mps 733 mmHg 40%
    12:00 +39°C° 0 mm 3 mps 732 mmHg 35%
    13:00 +40°C° 0 mm 2 mps 732 mmHg 32%
    14:00 +41°C° 0 mm 1 mps 731 mmHg 30%
    15:00 +39°C° 0 mm 0 mps 731 mmHg 27%
    16:00 +41°C° 0 mm 1 mps 730 mmHg 27%
    17:00 +41°C° 0 mm 1 mps 730 mmHg 27%
    18:00 +41°C° 0 mm 2 mps 730 mmHg 27%
    19:00 +40°C° 0 mm 2 mps 730 mmHg 28%
    20:00 +39°C° 0 mm 3 mps 731 mmHg 30%
    21:00 +40°C° 0 mm 4 mps 731 mmHg 32%
    22:00 +38°C° 0.1 mm 4 mps 731 mmHg 35%
    23:00 +37°C° 0.1 mm 4 mps 731 mmHg 38%

    1 June, Monday

    Time Temperature Precipitation Wind Pressure Humidity
    00:00 +36°C° 0.1 mm 5 mps 732 mmHg 41%
    01:00 +36°C° 0.2 mm 4 mps 732 mmHg 42%
    02:00 +35°C° 0.2 mm 4 mps 731 mmHg 44%
    03:00 +35°C° 0.2 mm 4 mps 731 mmHg 45%
    04:00 +34°C° 0 mm 4 mps 732 mmHg 47%
    05:00 +34°C° 0 mm 4 mps 732 mmHg 50%
    06:00 +33°C° 0 mm 5 mps 732 mmHg 53%
    07:00 +34°C° 0 mm 5 mps 732 mmHg 50%
    08:00 +35°C° 0 mm 5 mps 732 mmHg 47%
    09:00 +36°C° 0 mm 5 mps 733 mmHg 45%
    10:00 +39°C° 0 mm 5 mps 732 mmHg 41%
    11:00 +40°C° 0 mm 4 mps 732 mmHg 37%
    12:00 +41°C° 0 mm 4 mps 732 mmHg 33%
    13:00 +42°C° 0 mm 3 mps 731 mmHg 30%
    14:00 +42°C° 0 mm 2 mps 730 mmHg 28%
    15:00 +43°C° 0 mm 1 mps 730 mmHg 25%
    16:00 +43°C° 0 mm 1 mps 729 mmHg 24%
    17:00 +42°C° 0 mm 1 mps 729 mmHg 24%
    18:00 +42°C° 0 mm 1 mps 729 mmHg 23%
    19:00 +41°C° 0.1 mm 2 mps 730 mmHg 28%
    20:00 +39°C° 0.1 mm 3 mps 730 mmHg 33%
    21:00 +37°C° 0.1 mm 4 mps 730 mmHg 38%
    22:00 +36°C° 0.1 mm 4 mps 730 mmHg 40%
    23:00 +35°C° 0.1 mm 5 mps 730 mmHg 42%

    2 June, Tuesday

    Time Temperature Precipitation Wind Pressure Humidity
    00:00 +34°C° 0.1 mm 6 mps 731 mmHg 45%
    01:00 +34°C° 0 mm 6 mps 730 mmHg 49%
    02:00 +33°C° 0 mm 6 mps 730 mmHg 52%
    03:00 +33°C° 0 mm 6 mps 730 mmHg 56%
    04:00 +32°C° 0 mm 6 mps 730 mmHg 59%
    05:00 +32°C° 0 mm 6 mps 731 mmHg 62%
    06:00 +30°C° 0 mm 6 mps 731 mmHg 66%
    07:00 +32°C° 0 mm 6 mps 731 mmHg 62%
    08:00 +33°C° 0 mm 6 mps 732 mmHg 59%
    09:00 +34°C° 0 mm 6 mps 732 mmHg 55%
    10:00 +35°C° 0 mm 6 mps 732 mmHg 49%
    11:00 +38°C° 0 mm 6 mps 732 mmHg 43%
    12:00 +40°C° 0 mm 6 mps 731 mmHg 37%
    13:00 +41°C° 0 mm 5 mps 731 mmHg 34%
    14:00 +42°C° 0 mm 5 mps 730 mmHg 31%
    15:00 +43°C° 0 mm 4 mps 729 mmHg 28%
    16:00 +43°C° 0 mm 4 mps 729 mmHg 28%
    17:00 +42°C° 0 mm 4 mps 729 mmHg 28%
    18:00 +42°C° 0 mm 4 mps 729 mmHg 29%
    19:00 +41°C° 0.1 mm 4 mps 730 mmHg 33%
    20:00 +39°C° 0.1 mm 5 mps 730 mmHg 37%
    21:00 +38°C° 0.1 mm 6 mps 730 mmHg 41%
    22:00 +37°C° 0 mm 5 mps 730 mmHg 44%
    23:00 +36°C° 0 mm 5 mps 731 mmHg 47%
    Show more